User: anonymous   Login
Location: Unspecified
(0.0000°N, 0.0000°E)
Time: 05:49:54
(UTC+00:00)
Language:

USA 187 - Orbit

View from above orbital plane
View from above orbital plane
View from above satellite
View from above satellite

Ground track
Ground track

The orbit data is extracted from the following two-line orbital elements,

1 29240U 06024A   18314.68778155 0.00000000  00000-0  00000-0 0    06
2 29240   1.7504  79.3287 0014699 197.0848 162.8776  0.98601153    08
Epoch (UTC): 10 November 2018 16:30:24
Eccentricity: 0.0014699
inclination: 1.7504°
perigee height: 36198 km
apogee height: 36324 km
right ascension of ascending node: 79.3287°
argument of perigee: 197.0848°
revolutions per day: 0.98601153
mean anomaly at epoch: 162.8776°
orbit number at epoch: 0

The dashed part of the orbit path shows where the satellite is in the earth's shadow,  

DLR